Location: Austin
(30.3000°N, 97.7500°W)
Time: 03:14:35
(UTC-05:00)

Cosmos 1975 - Pass Details

Date: 18 March 2023
Orbit: 531 x 550 km, 82.5° (Epoch: 01 April)

Event Time Altitude Azimuth Distance (km) Brightness Sun altitude
Rises 20:49:23 0° 167° (SSE) 2,658 6.1 -15.5°
Enters shadow 20:50:40 - 163° (SSE) 2,145 5.6 -15.8°
Exits shadow 20:54:34 34° 114° (ESE) 899 3.4 -16.6°
Maximum altitude 20:55:12 36° 92° (E) 857 3.2 -16.7°
Drops below altitude 10° 20:58:49 10° 25° (NNE) 1,792 5.3 -17.5°
Sets 21:01:05 0° 17° (NNE) 2,690 6.3 -18.0°
